Skip Page Navigation
NASA JPL Caltech
NASA Logo - Jet Propulsion Laboratory + View the NASA Portal
+ Center for Near-Earth Object Studies
JPL Home Earth Solar System Stars & Galaxies Technology
JPL Solar System Dynamics
BODIES ORBITS EPHEMERIDES TOOLS PHYSICAL DATA DISCOVERY FAQ SITE MAP
IMPORTANT: The SSD Announcement email list is now available. Major changes are coming in the near future, including possible hostname and/or URL changes. To be notified of such changes, subscribe to this email list.

Please visit this page for more details.


JPL Small-Body Database Browser
Search: [ help ]  
344105 (1999 TD150)
Classification: Main-belt Asteroid          SPK-ID: 2344105
Ephemeris | Orbit Diagram | Orbital Elements | Mission Design | Physical Parameters | Discovery Circumstances ]

[ show orbit diagram ]
Orbital Elements at Epoch 2458600.5 (2019-Apr-27.0) TDB
Reference: JPL 10 (heliocentric ecliptic J2000)
 Element Value Uncertainty (1-sigma)   Units 
e .1783912148714304 7.328e-08  
a 2.624006431063735 2.3374e-08 au
q 2.155906735995829 1.9419e-07 au
i 13.17012181495157 7.9027e-06 deg
node 183.0388514024654 2.5287e-05 deg
peri 185.4561930496641 2.9894e-05 deg
M 223.0885542317738 1.6654e-05 deg
tp 2459190.949861855600
(2020-Dec-07.44986186)
7.5469e-05 TDB
period 1552.550621865878
4.25
2.0745e-05
5.68e-08
d
yr
n .2318764972489894 3.0983e-09 deg/d
Q 3.092106126131641 2.7544e-08 au
  Orbit Determination Parameters
   # obs. used (total)      161  
   data-arc span      7159 days (19.60 yr)  
   first obs. used      1999-10-03  
   last obs. used      2019-05-10  
   planetary ephem.      DE431  
   SB-pert. ephem.      SB431-N16  
   condition code      0  
   norm. resid. RMS      .59675  
   source      ORB  
   producer      Otto Matic  
   solution date      2019-May-30 09:23:31  

Additional Information
 Earth MOID = 1.15425 au 
 Jupiter MOID = 2.36637 au 
 T_jup = 3.344 
[ show covariance matrix ]

Ephemeris | Orbit Diagram | Orbital Elements | Mission Design | Physical Parameters | Discovery Circumstances ]

Physical Parameter Table
Parameter Symbol Value Units Sigma Reference Notes
absolute magnitude H 16.6   n/a MPO437458  

344105 (1999 TD150)          Discovered 1999-Oct-07 by LINEAR at Socorro
Reference: 20121128/Numbers.arcLast Updated: 2012-12-03
Ephemeris | Orbit Diagram | Orbital Elements | Mission Design | Physical Parameters | Discovery Circumstances ]
ABOUT SSD CREDITS/AWARDS PRIVACY/COPYRIGHT GLOSSARY LINKS
FirstGov 2019-Dec-11 22:55 UT
(server date/time)  
NASA Home Page
Site Manager:   Ryan S. Park
Webmaster  Alan B. Chamberlin